Fryeburg, ME

9:22 AM EDT on June 28, 2017 (GMT -0400)
Eastern Slopes Regional

Weather History for KIZG - April, 2013

Change the Weather History Date:

Friday, April 12, 2013

  Actual Average Record
Temperature  
Mean Temperature 34 °F -  
Max Temperature 37 °F 53 °F 72 °F (2006)
Min Temperature 30 °F 26 °F 16 °F (1997)
Degree Days  
Heating Degree Days 32    
Moisture  
Dew Point 27 °F    
Average Humidity 84    
Maximum Humidity 96    
Minimum Humidity 39    
Precipitation  
Precipitation 0.49 in - - ()
Sea Level Pressure  
Sea Level Pressure 30.06 in    
Wind  
Wind Speed 5 mph (NNE)    
Max Wind Speed 9 mph    
Max Gust Speed -    
Visibility 5 miles    
Events Fog , Rain , Snow    
Averages and records for this station are not official NWS values.
T = Trace of Precipitation, MM = Missing Value Source: NWS Daily Summary

Daily Weather History Graph

Daily Weather History Graph

Search for Another Location

Airport or City:

Trip Planner

Search our weather history database for the weather conditions in past years. The results will help you decide how hot, cold, wet, or windy it might be!

Date:

Astronomy

Apr. 12, 2013 Rise Set
Actual Time 6:05 AM EDT 7:24 PM EDT
Civil Twilight 5:35 AM EDT 7:54 PM EDT
Nautical Twilight 4:59 AM EDT 8:30 PM EDT
Astronomical Twilight 4:21 AM EDT 9:08 PM EDT
Moon 7:08 AM EDT (4/12) 9:57 PM EDT (4/12)
Length of Visible Light 14h 18m
Length of Day
13h 19m
Waxing Crescent, 5% of the Moon is Illuminated
Apr 12
Waxing Crescent
Apr 18
First Quarter
Apr 25
Full
May 2
Last Quarter
May 9
New

Hourly Weather History & Observations

Time (EDT) Temp. Windchill Dew Point Humidity Pressure Visibility Wind Dir Wind Speed Gust Speed Precip Events Conditions
12:54 AM 37.0 °F 32.4 °F 16.0 °F 42% 30.21 in 10.0 mi NE 5.8 mph - N/A   Overcast
1:54 AM 37.0 °F 31.0 °F 15.1 °F 41% 30.22 in 10.0 mi NE 8.1 mph - N/A   Overcast
2:54 AM 36.0 °F 30.3 °F 12.9 °F 39% 30.22 in 10.0 mi ENE 6.9 mph - N/A   Overcast
3:54 AM 35.1 °F 31.0 °F 14.0 °F 42% 30.23 in 10.0 mi East 4.6 mph - N/A   Overcast
4:54 AM 35.1 °F 30.1 °F 12.0 °F 39% 30.25 in 10.0 mi NE 5.8 mph - N/A   Overcast
5:54 AM 33.1 °F 26.1 °F 14.0 °F 46% 30.26 in 7.0 mi ENE 8.1 mph - 0.00 in Snow Light Snow
6:54 AM 30.0 °F 25.2 °F 21.0 °F 69% 30.27 in 10.0 mi NE 4.6 mph - 0.03 in   Overcast
7:54 AM 30.9 °F - 21.9 °F 69% 30.26 in 10.0 mi Calm Calm - 0.00 in   Overcast
8:54 AM 30.9 °F 25.2 °F 23.0 °F 72% 30.23 in 10.0 mi North 5.8 mph - 0.01 in   Overcast
9:54 AM 30.9 °F 26.2 °F 25.0 °F 79% 30.20 in 10.0 mi North 4.6 mph - 0.00 in   Overcast
10:54 AM 32.0 °F 27.5 °F 23.0 °F 69% 30.17 in 10.0 mi NNE 4.6 mph - 0.00 in   Overcast
11:54 AM 33.1 °F - 23.0 °F 66% 30.15 in 10.0 mi Calm Calm - N/A   Overcast
12:32 PM 32.0 °F 27.5 °F 24.8 °F 75% 30.11 in 5.0 mi NNE 4.6 mph - 0.02 in Rain Light Freezing Rain
12:54 PM 32.0 °F - 26.1 °F 79% 30.14 in 5.0 mi Calm Calm - 0.04 in Rain Light Freezing Rain
1:18 PM 30.2 °F 26.7 °F 26.6 °F 86% 30.11 in 5.0 mi NNE 3.5 mph - 0.05 in Rain Light Freezing Rain
1:31 PM 30.2 °F 26.7 °F 26.6 °F 86% 30.11 in 3.0 mi Variable 3.5 mph - 0.09 in Rain Light Freezing Rain
1:54 PM 30.9 °F 27.5 °F 28.0 °F 89% 30.12 in 3.0 mi NNE 3.5 mph - 0.16 in Rain Light Freezing Rain
2:12 PM 30.2 °F 23.4 °F 28.4 °F 93% 30.08 in 2.5 mi NE 6.9 mph - 0.04 in Rain Light Freezing Rain
2:25 PM 30.2 °F 23.4 °F 28.4 °F 93% 30.07 in 2.5 mi ENE 6.9 mph - 0.07 in Rain Light Freezing Rain
2:27 PM 30.2 °F 24.3 °F 28.4 °F 93% 30.07 in 3.0 mi Variable 5.8 mph - 0.07 in Rain Light Freezing Rain
2:31 PM 30.2 °F 24.3 °F 28.4 °F 93% 30.06 in 2.5 mi NE 5.8 mph - 0.08 in Rain Light Freezing Rain
2:45 PM 30.2 °F 24.3 °F 28.4 °F 93% 30.06 in 2.0 mi ENE 5.8 mph - 0.10 in   Overcast
2:54 PM 30.9 °F 26.2 °F 28.0 °F 89% 30.09 in 2.0 mi Variable 4.6 mph - 0.11 in   Overcast
2:59 PM 30.2 °F 25.4 °F 28.4 °F 93% 30.07 in 1.2 mi NE 4.6 mph - 0.01 in   Overcast
3:16 PM 30.2 °F - 28.4 °F 93% 30.07 in 1.0 mi Calm Calm - 0.04 in   Mist
3:23 PM 30.2 °F 25.4 °F 28.4 °F 93% 30.07 in 0.5 mi NE 4.6 mph - 0.05 in Fog , Snow Light Snow
3:54 PM 30.9 °F 26.2 °F 30.0 °F 96% 30.07 in 0.8 mi North 4.6 mph - 0.06 in Snow Light Snow
4:54 PM 30.9 °F 26.2 °F 30.0 °F 96% 30.04 in 1.0 mi NNE 4.6 mph - 0.03 in Snow Light Snow
5:17 PM 32.0 °F 26.4 °F 30.2 °F 93% 30.02 in 2.0 mi Variable 5.8 mph - 0.00 in Snow Light Snow
5:28 PM 32.0 °F 24.2 °F 30.2 °F 93% 30.02 in 2.5 mi East 9.2 mph - 0.01 in Rain Light Freezing Rain
5:37 PM 32.0 °F 25.6 °F 30.2 °F 93% 30.02 in 5.0 mi East 6.9 mph - 0.01 in Rain Light Freezing Rain
5:44 PM 32.0 °F 27.5 °F 30.2 °F 93% 30.02 in 7.0 mi Variable 4.6 mph - 0.01 in Rain Light Freezing Rain
5:51 PM 32.0 °F 27.5 °F 30.2 °F 93% 30.02 in 10.0 mi East 4.6 mph - 0.01 in   Overcast
5:54 PM 32.0 °F 26.4 °F 30.0 °F 92% 30.04 in 10.0 mi ENE 5.8 mph - 0.01 in   Overcast
6:18 PM 32.0 °F 27.5 °F 30.2 °F 93% 30.01 in 4.0 mi NE 4.6 mph - 0.00 in Rain Light Freezing Rain
6:54 PM 32.0 °F 26.4 °F 30.0 °F 92% 30.02 in 5.0 mi NNE 5.8 mph - 0.00 in Rain Light Freezing Rain
7:11 PM 32.0 °F 28.7 °F 30.2 °F 93% 29.98 in 5.0 mi NNE 3.5 mph - 0.00 in   Overcast
7:37 PM 32.0 °F 25.6 °F 30.2 °F 93% 29.97 in 3.0 mi NNE 6.9 mph - 0.01 in   Overcast
7:43 PM 32.0 °F 26.4 °F 30.2 °F 93% 29.97 in 4.0 mi NE 5.8 mph - 0.01 in Rain Light Freezing Rain
7:54 PM 32.0 °F 25.6 °F 30.0 °F 92% 29.99 in 4.0 mi NNE 6.9 mph - 0.01 in Rain Light Freezing Rain
8:08 PM 32.0 °F 24.8 °F 30.2 °F 93% 29.96 in 2.5 mi NNE 8.1 mph - 0.01 in Snow Light Snow
8:33 PM 32.0 °F 27.5 °F 30.2 °F 93% 29.97 in 3.0 mi North 4.6 mph - 0.01 in Snow Light Snow
8:37 PM 32.0 °F 27.5 °F 30.2 °F 93% 29.97 in 2.5 mi North 4.6 mph - 0.01 in Snow Light Snow
8:51 PM 32.0 °F 26.4 °F 30.2 °F 93% 29.96 in 3.0 mi North 5.8 mph - 0.02 in Snow Light Snow
8:54 PM 32.0 °F 27.5 °F 30.0 °F 92% 29.98 in 3.0 mi North 4.6 mph - 0.02 in   Overcast
9:01 PM 32.0 °F 28.7 °F 30.2 °F 93% 29.96 in 4.0 mi North 3.5 mph - 0.01 in   Overcast
9:18 PM 32.0 °F 27.5 °F 30.2 °F 93% 29.96 in 5.0 mi North 4.6 mph - 0.01 in   Overcast
9:51 PM 32.0 °F 25.6 °F 30.2 °F 93% 29.95 in 5.0 mi North 6.9 mph - 0.01 in   Overcast
9:54 PM 32.0 °F 26.4 °F 30.0 °F 92% 29.97 in 4.0 mi North 5.8 mph - 0.01 in   Overcast
10:02 PM 32.0 °F 24.8 °F 30.2 °F 93% 29.94 in 4.0 mi North 8.1 mph - 0.00 in Snow Light Snow
10:15 PM 32.0 °F 26.4 °F 30.2 °F 93% 29.94 in 3.0 mi North 5.8 mph - 0.00 in   Overcast
10:54 PM 32.0 °F 26.4 °F 30.9 °F 96% 29.94 in 4.0 mi North 5.8 mph - 0.00 in   Overcast
11:29 PM 32.0 °F 25.6 °F 30.2 °F 93% 29.90 in 5.0 mi North 6.9 mph - N/A   Overcast
11:54 PM 32.0 °F 25.6 °F 30.9 °F 96% 29.92 in 4.0 mi North 6.9 mph - N/A   Overcast